Weather History for KTRI - May, 2013

Change the Weather History Date:

Thursday, May 16, 2013

  Actual Average Record
Temperature  
Mean Temperature 64 °F 64 °F  
Max Temperature 76 °F 76 °F 91 °F (1962)
Min Temperature 52 °F 51 °F 30 °F (1997)
Degree Days  
Heating Degree Days 1 3  
Month to date heating degree days 94 75  
Since 1 July heating degree days 4295 4329  
Cooling Degree Days 0 2  
Month to date cooling degree days 2 20  
Year to date cooling degree days 8 31  
Growing Degree Days 14 (Base 50)    
Moisture  
Dew Point 55 °F    
Average Humidity 75    
Maximum Humidity 100    
Minimum Humidity 50    
Precipitation  
Precipitation T in 0.12 in 1.36 in (1963)
Month to date precipitation 1.21 1.91  
Year to date precipitation 21.81 15.50  
Snow  
Snow 0.00 in 0.00 in - ()
Month to date snowfall 0.0 0.0  
Since 1 July snowfall 9.2 13.3  
Snow Depth 0.00 in    
Sea Level Pressure  
Sea Level Pressure 29.99 in    
Wind  
Wind Speed 4 mph (SW)    
Max Wind Speed 14 mph    
Max Gust Speed 18 mph    
Visibility 10 miles    
Events      
T = Trace of Precipitation, MM = Missing Value Source: NWS Daily Summary

Daily Weather History Graph

Daily Weather History Graph

Search for Another Location

Airport or City:

Trip Planner

Search our weather history database for the weather conditions in past years. The results will help you decide how hot, cold, wet, or windy it might be!

Date:

Astronomy

May. 16, 2013 Rise Set
Actual Time 6:21 AM EDT 8:30 PM EDT
Civil Twilight 5:52 AM EDT 8:59 PM EDT
Nautical Twilight 5:17 AM EDT 9:34 PM EDT
Astronomical Twilight 4:39 AM EDT 10:13 PM EDT
Moon 11:50 AM EDT (5/16) 12:53 AM EDT (5/16)
Length of Visible Light 15h 06m
Length of Day
14h 08m
Waxing Crescent, 35% of the Moon is Illuminated
May 16
Waxing Crescent
May 18
First Quarter
May 25
Full
May 31
Last Quarter
Jun 8
New

Hourly Weather History & Observations

Time (EDT) Temp. Dew Point Humidity Pressure Visibility Wind Dir Wind Speed Gust Speed Precip Events Conditions
12:53 AM 61.0 °F 55.0 °F 81% 29.97 in 10.0 mi Calm Calm - N/A   Clear
1:53 AM 57.9 °F 54.0 °F 87% 29.96 in 10.0 mi Calm Calm - N/A   Clear
2:53 AM 55.0 °F 53.1 °F 93% 29.96 in 9.0 mi Calm Calm - N/A   Clear
3:53 AM 53.1 °F 52.0 °F 96% 29.96 in 5.0 mi Calm Calm - N/A   Clear
4:53 AM 55.9 °F 52.0 °F 87% 29.97 in 9.0 mi Calm Calm - N/A   Clear
5:53 AM 52.0 °F 51.1 °F 97% 29.98 in 4.0 mi Calm Calm - N/A   Scattered Clouds
6:53 AM 52.0 °F 51.1 °F 97% 29.99 in 10.0 mi Calm Calm - N/A   Mostly Cloudy
7:53 AM 55.9 °F 54.0 °F 93% 30.00 in 10.0 mi Calm Calm - N/A   Mostly Cloudy
8:53 AM 62.1 °F 55.9 °F 80% 30.01 in 10.0 mi Calm Calm - N/A   Mostly Cloudy
9:53 AM 68.0 °F 57.0 °F 68% 30.02 in 10.0 mi Calm Calm - N/A   Mostly Cloudy
10:53 AM 73.0 °F 55.0 °F 53% 30.02 in 10.0 mi SW 8.1 mph - N/A   Mostly Cloudy
11:53 AM 72.0 °F 55.0 °F 55% 30.03 in 10.0 mi SW 9.2 mph - N/A   Mostly Cloudy
12:53 PM 73.9 °F 57.0 °F 55% 30.01 in 10.0 mi SW 8.1 mph - N/A   Overcast
1:53 PM 75.0 °F 55.9 °F 51% 29.99 in 10.0 mi SW 12.7 mph - N/A   Overcast
2:53 PM 75.0 °F 55.9 °F 51% 29.99 in 10.0 mi WSW 11.5 mph - N/A   Overcast
3:53 PM 75.0 °F 57.0 °F 53% 29.98 in 10.0 mi SSW 10.4 mph - N/A   Overcast
4:53 PM 75.0 °F 57.9 °F 55% 29.97 in 10.0 mi SW 9.2 mph - N/A   Mostly Cloudy
5:53 PM 73.0 °F 57.9 °F 59% 29.97 in 10.0 mi SW 6.9 mph - N/A   Mostly Cloudy
6:53 PM 75.0 °F 55.0 °F 50% 29.96 in 10.0 mi SW 8.1 mph - N/A   Mostly Cloudy
7:53 PM 72.0 °F 55.0 °F 55% 29.97 in 10.0 mi SSW 4.6 mph - N/A   Mostly Cloudy
8:53 PM 69.1 °F 55.0 °F 61% 29.98 in 10.0 mi Calm Calm - N/A   Mostly Cloudy
9:53 PM 63.0 °F 55.9 °F 78% 30.00 in 10.0 mi Calm Calm - N/A   Mostly Cloudy
10:53 PM 62.1 °F 57.0 °F 84% 30.01 in 10.0 mi Calm Calm - N/A   Mostly Cloudy
11:53 PM 61.0 °F 57.0 °F 87% 30.01 in 10.0 mi Calm Calm - 0.00 in   Scattered Clouds